{"data":{"norad_id":54101,"intl_designator":"2022-136BC","name":"STARLINK-5204","alt_names":[],"object_type":"PAYLOAD","status":"ACTIVE","operator":null,"country":"US","launch_date":"2022-10-20","launch_site_code":"AFETR","launch_vehicle":null,"mission":null,"orbit_class":"UNKNOWN","rcs_meters":null,"size_class":null,"mass_kg":null,"dimensions":null,"purposes":["comms"],"wikipedia_slug":null,"has_3d_model":false,"image_url":null,"decayed_at":null,"tle_current":{"epoch":"2026-05-24T21:39:56.424096Z","epoch_age_seconds":83213,"freshness":"FRESH","line1":"1 54101U 22136BC  26144.90273639  .00000463  00000+0  47189-4 0  9996","line2":"2 54101  53.2126 336.7487 0001073 121.8181 238.2915 15.08835266198702","mean_motion":15.08835266,"eccentricity":0.0001073,"inclination_deg":53.2126,"raan_deg":336.7487,"arg_perigee_deg":121.8181,"mean_anomaly_deg":238.2915,"bstar":4.7189e-5,"rev_number":19870,"period_min":95.43785411495,"perigee_km":539.01556882771,"apogee_km":540.50014906444,"semimajor_km":6917.8948589461,"source":"CELESTRAK","updated_at":"2026-05-25T13:38:17.657762Z"}}}